Regional Weather Roundup
Issued by NWS

Home | Current Version | Previous Version | Graphics & Text | Print | Product List | Glossary Off
Versions: 1 2 3 4 5 6 7 8 9 10 11 12 13 14 15 16 17 18 19 20 21 22 23 24 25 26 27 28 29 30 31 32 33 34 35 36 37 38 39 40 41 42 43 44 45 46 47 48 49 50

000
ASUS43 KMKX 252113
RWRWI

WISCONSIN REGIONAL WEATHER ROUNDUP
NATIONAL WEATHER SERVICE MILWAUKEE/SULLIVAN WI
400 PM CDT MON MAY 25 2015

NOTE: "FAIR" INDICATES FEW OR NO CLOUDS BELOW 12,000 FEET WITH NO
SIGNIFICANT WEATHER AND/OR OBSTRUCTIONS TO VISIBILITY.

WIZ001-002-006>008-014>016-023>028-252200-
NORTHWEST WISCONSIN

CITY           SKY/WX    TMP DP  RH WIND       PRES   REMARKS
SUPERIOR ARPT  CLOUDY    47  46  99 NE6       29.72R
ASHLAND        CLOUDY    58  56  93 CALM      29.70R
HAYWARD        CLOUDY    65  57  75 SW8       29.71R
SIREN          CLOUDY    65  57  77 SW13      29.71R
CUMBERLAND     CLOUDY    64  55  72 SW14      29.73R
RICE LAKE      CLOUDY    66  56  70 SW14G20   29.75R
CHETEK         CLOUDY    67  60  78 SW5       29.74R
LADYSMITH      CLOUDY    67  59  76 SW14      29.75R
EAU CLAIRE     CLOUDY    72  58  61 SW17G23   29.73S
MENOMONIE      PTSUNNY   72  59  62 SW12G22   29.73S
NEW RICHMOND   MOSUNNY   67  59  75 SW13G18   29.73S
OSCEOLA        CLOUDY    66  61  84 SW7       29.75S
$$

WIZ003>005-009-010-017-018-252200-
NORTH CENTRAL WISCONSIN

CITY           SKY/WX    TMP DP  RH WIND       PRES   REMARKS
MANITOWISH WTR CLOUDY    63  62  97 SW10      29.71R
ARBOR VITAE    CLOUDY    64  62  91 SW10G16   29.72R
WOODRUFF       CLOUDY    64  62  91 SW10G16   29.72R
RHINELANDER    CLOUDY    68  59  73 W16G24    29.74R
EAGLE RIVER    RAIN      62  62  98 SW10G16   29.72R
LAND O LAKES   CLOUDY    64  60  88 SW9       29.72R
PHILLIPS       CLOUDY    66  61  85 SW8       29.71R
TOMAHAWK       CLOUDY    67  59  75 SW8G16    29.74R
MEDFORD        CLOUDY    66  60  80 SW10G20   29.76R
MERRILL        CLOUDY    69  61  76 W14G20    29.75R
$$

WIZ029-030-035-036-043>047-252200-
CENTRAL WISCONSIN

CITY           SKY/WX    TMP DP  RH WIND       PRES   REMARKS
WAUSAU         CLOUDY    70  59  68 SW12G28   29.75R
MOSINEE        NOT AVBL
MARSHFIELD     PTSUNNY   74  60  61 SW16G23   29.76R
STEVENS POINT  CLOUDY    71  58  62 SW16      29.77R
WAUPACA        MOSUNNY   78  61  56 SW17      29.77R
WAUTOMA        NOT AVBL
WISC RAPIDS    PTSUNNY   76  58  53 W15G22    29.78R
CAMP DOUGLAS   NOT AVBL
$$

WIZ011>013-019>022-031-037>040-048>050-252200-
NORTHEAST WISCONSIN

CITY           SKY/WX    TMP DP  RH WIND       PRES   REMARKS
ANTIGO         CLOUDY    68  62  80 SW17G25   29.75S
SHAWANO        PTSUNNY   74  62  65 SW9       29.74S
OCONTO         CLOUDY    74  64  69 SW14G22   29.73R
STURGEON BAY   PTSUNNY   73  63  68 SW22G30   29.76S
GREEN BAY      PTSUNNY   76  62  62 SW21G28   29.75S
MANITOWOC      NOT AVBL
APPLETON       PTSUNNY   75  61  60 SW21G28   29.78R
CLINTONVILLE   PTSUNNY   75  59  57 SW16G22   29.74S
OSHKOSH        MOSUNNY   75  61  61 SW12G22   29.78R
$$

WIZ032>034-041-042-053>061-252200-
SOUTHWEST WISCONSIN

CITY           SKY/WX    TMP DP  RH WIND       PRES   REMARKS
LA CROSSE      MOSUNNY   78  61  55 SW18G24   29.74F HX  80
SPARTA         MOSUNNY   78  59  51 SW8G18    29.77F
VIROQUA        PTSUNNY   74  63  68 SW16G28   29.81R
BOSCOBEL       PTSUNNY   79  62  56 SW18G24   29.81R HX  80
PRAIRIE DU CHI PTSUNNY   78  60  53 S13G28    29.81R
PLATTEVILLE    MOSUNNY   76  64  65 SW18G25   29.86R
$$

WIZ056-057-062-063-064-067-068-252200-
SOUTH CENTRAL WISCONSIN

CITY           SKY/WX    TMP DP  RH WIND       PRES   REMARKS
REEDSBURG      MOSUNNY   77  65  67 SW12G20   29.80S
BARABOO/DELLS  MOSUNNY   76  63  64 SW15      29.81S
LONE ROCK      NOT AVBL
MINERAL POINT  MOSUNNY   79  61  53 SW16G25   29.85R HX  80
MADISON        PTSUNNY   77  61  57 SW9       29.83R
MIDDLETON      PTSUNNY   79  60  53 SW15G23   29.84S HX  80
WATERTOWN      MOSUNNY   76  62  62 SW17G24   29.83R
MONROE         MOSUNNY   77  63  61 SW22G30   29.87R
JANESVILLE     PTSUNNY   79  61  53 SW20G26   29.87R HX  80
$$

WIZ051-052-058>065-066-070>072-252200-
SOUTHEAST WISCONSIN

CITY           SKY/WX    TMP DP  RH WIND       PRES   REMARKS
MILWAUKEE      PTSUNNY   78  58  49 SW18G26   29.85S
WAUKESHA       PTSUNNY   75  61  60 SW16G23   29.85S
MILWAUKEE/TIMM NOT AVBL
RACINE         MOSUNNY   77  61  57 SW18G24   29.87R
BURLINGTON     PTSUNNY   75  60  59 SW17G24   29.86S
KENOSHA        MOSUNNY   78  62  57 SW17G29   29.87R HX  80
FOND DU LAC    PTSUNNY   76  61  59 SW15G25   29.81R
SHEBOYGAN      SUNNY     76  63  64 SW17G26   29.80R
WEST BEND      MOSUNNY   77  59  53 SW14G26   29.82S
JUNEAU         CLOUDY    74  62  64 SW21G29   29.84R
$$

LSZ147-162-252200-
LAKE SUPERIOR

STATION/POSITION TIME  TEMP    WIND        PRES    WAVE
                       AIR SEA DIR/SP/G            HT/PER
                 (UTC) (F)     (DEG/KT/KT) (MB)    (FT/S)
W MID LAKE BUOY  1950   39 36   30/ 14/ 16 1049.0F   4/ 5
DEVILS ISLAND    2000   42      90/ 10/ 13 1064.0R
PORT WING        2000   43      20/  8/ 12 1061.0
SAXON HARBOR     2000   47        CALM     1054.0R
$$

LMZ867-665-643>646-252200-
LAKE MICHIGAN

STATION/POSITION TIME  TEMP    WIND        PRES    WAVE
                       AIR SEA DIR/SP/G            HT/PER
                 (UTC) (F)     (DEG/KT/KT) (MB)    (FT/S)
CHAMBERS ISLAND  1900   68     190/  9/ 14 1058.0R
N MID LAKE BUOY  1950   44 37  200/ 21/ 23 1064.0R   4/ 5
NORTHPORT PIER   2000   58     140/  7/ 10 1064.0R
SISTER BAY       2017   69     230/ 17/ 20   N/A
KEWAUNEE LAKESHO 2000   62     180/ 12/ 15 1069.0R
SHEBOYGAN LAKESH 2000          240/ 22/ 27 1089.0R
PORT WASHINGTON  2000   77     240/ 13/ 20   N/A
ATWATER BUOY     2000   69 45  230/ 17/ 21   N/A
MILWAUKEE LAKESH 2000   73     230/ 20/ 25   N/A
S MID LAKE BUOY  1950   47 38  190/ 14/ 16   N/A     2/ 4
KENOSHA   LAKESH 2000   75     250/ 13/ 21   N/A
$$

TC  - TEMPERATURE IN CELSIUS
VSB - VISIBILITY IN STATUTE MILES
WCI - WIND CHILL INDEX
HX  - HEAT INDEX




USA.gov is the U.S. government's official web portal to all federal, state and local government web resources and services.